Погода Маресале

Погода Маресале : погода сейчас, прогноз погоды и архив. Всё, что Вы хотите узнать о погоде Маресале!

Хотите узнать прогноз погоды Маресале? Тогда Вам сюда: Погода Маресале

Поиск расширенной информации на нашем сайте:

Другие новости

Новости СМИ2

Главная страница сайта

Новости сайта

02.10.2013

Напоминаем, что на нашем новом сайте вы можете получить высокодетализированные прогнозы погоды по пунктам России, СНГ и мира (включающие важные для авиации метеовеличины, такие как направление и скорость ветра, видимость, явления погоды, количество и форма облачности, нижняя и верхняя граница облачности), а также ознакомиться с разнообразными материалами по авиационной метеорологии и подборкой полезных ссылок на эту тему.

Сайт Метеоцентр.Азия посвящён разработке технологий оптимизации авиаметеорологического обслуживания, включая проектирование и перспективное создание нескольких автоматизированных авиаметеорологических систем:
- система выпуска высокодетальных прогностических карт явлений погоды для нижнего воздушного пространства по России и ближнему зарубежью;
- система верификации прогнозов TAF (выпускаемых синоптиками официальных АМСГ РФ и ближнего зарубежья) и AUTOTAF (выпускаемых сайтом Метеоцентр.Азия) - выявление ошибок, онлайн-сопоставление с фактической погодой METAR, автоматическое внесение коррективов в прогнозы при резком отклонении фактической погоды от прогноза, подсчёт оправдываемости прогнозов по элементам и в целом;
- система обработки, анализа и отображения авиаметеорологической информации для применения провайдерами метеорологической информации.

Рекомендуем: Очень заманчивое предложение:. Частотный преобразователь 5.5 кВт - широкий выбор!

Погода Маресале - сегодня

Время (UTC), дата Ветер
(°,м/с) 
Видим.   Явления Облачность Т
(°С)
Тd
(°С)
f(%) Тe
(°С)
Pmin
(гПа)
dP
(гПа)
Po
(мм)
O2
(г/м3)
Тmin Tmax R s Состояние
почвы
00 22.03.17 220 (ЮЗ) 8-11{11}  2000 м  слаб. ливневой снег  10/10 270 м кучево-дожд. 
[Cb cap]
-1 -1 100 -5  1013.4  -0.3  758  307           
03 22.03.17 220 (ЮЗ) 7{11}  2000 м  слаб. ливневой снег  10/10 1200 м кучево-дожд. 
[Cb cap]
-1.1 -1.1 100 -5  1013.6  0.2  758  307  -5.5    0.5  11  неравномерный
сухой снег
100% 
06 22.03.17 230 (ЮЗ) 2000 м  слаб. ливневой снег  8/8 360 м кучево-дожд. 
[Cb cap]
-1.1 -1.1 100 -5  1013.4  -0.2  758  307           
09 22.03.17 200 (Ю) 10 км  позёмок{ливн. осадки}  8/8 360 м 
[Sc]
-1 -1.3 98 -3  1013.2  -0.2  758  307           
12 22.03.17 210 (ЮЗ) 2000 м  слаб. ливневой снег  9/9 660 м кучево-дожд. 
[Cb cap]
-1.3 -1.5 99 -2  1012.9  -0.3  757  307           
15 22.03.17 160 (Ю) 1000 м  дымка{ливн. осадки}  10/3 200 м 
[St]
-3.3 -3.3 100 -4  1012.5  -0.5  757  309    -0.4  0.0     
18 22.03.17 140 (ЮВ) 0500 м  туман  ?/?  
-2.6 -2.6 100 -4  1011.9  -0.6  756  308           
21 22.03.17 130 (ЮВ) 0500 м  слаб. ливневой снег{туман}  ?/?  
-2.9 -2.9 100 -5  1011.4  -0.4  756  308           
12 23.03.17 150 (ЮВ) 11-14{14}  0500 м  ливневой снег  10/10 210 м кучево-дожд. 
[Cb cap]
-0.3 -0.3 100 -6  1004.2  -3.2  751  303           
15 23.03.17 160 (Ю) 11-13{14}  0500 м  ливневой снег  10/10 180 м кучево-дожд. 
[Cb cap]
-0.1 -0.1 100 -5  1002.3  -1.8  749  302    -0     
18 23.03.17 180 (Ю) 3{14}  0500 м  ливневой снег  10/10 120 м кучево-дожд. 
[Cb cap]
-0.2 -0.2 100 -2  999.7  -2.6  747  301           
21 23.03.17 230 (ЮЗ) 9-13{13}  2000 м  слаб. ливневой снег  10/10 240 м кучево-дожд. 
[Cb cap]
-0.3 -0.3 100 -5  999.1  -0.7  747  301           
00 24.03.17 220 (ЮЗ) 7{13}  2000 м  слаб. ливневой снег  10/10 270 м кучево-дожд. 
[Cb cap]
-0.7 -0.7 100 -5  999.5  0.5  747  302           
03 24.03.17 220 (ЮЗ) 4000 м  позёмок{ливн. осадки}  10/10 450 м 
[Sc]
-0.6 -0.6 100 -4  999.8  0.2  747  302  -1    0.9     
06 24.03.17 220 (ЮЗ) 2000 м  дымка{ливн. осадки}  10/10 400 м 
[Sc]
-1 -1 100 -5  999.7  747  302  -1         
09 24.03.17 230 (ЮЗ) 5{11}  4000 м  дымка  8/8 360 м 
[Sc]
-0.1 -0.5 97 -3  999.1  -0.7  747  301           
12 24.03.17 230 (ЮЗ) 8-11{11}  4000 м  позёмок  10/10 270 м кучево-дожд. 
[Cb cap]
-1.2 -1.6 97 -6  999.2  0.1  747  302           
15 24.03.17 190 (Ю) 7{11}  2000 м  слаб. ливневой снег  10/10 400 м кучево-дожд. 
[Cb cap]
-1.8 -1.8 100 -6  998.9  -0.3  747  303    +0.2  0.0     
18 24.03.17 230 (ЮЗ) 2000 м  слаб. ливневой снег  10/10 240 м кучево-дожд. 
[Cb cap]
-1.1 -1.1 100 -5  998.2  -0.7  746  302           
21 24.03.17 200 (Ю) 4000 м  позёмок{ливн. осадки}  3/3 600 м 
[Sc]
-6.4 -6.4 100 -10  998.1  -0.1  746  309           
00 25.03.17 180 (Ю) 2000 м  слаб. ливневой снег  10/10 270 м кучево-дожд. 
[Cb cap]
-5.5 -5.5 100 -10  997.3  -0.8  746  307           
03 25.03.17 160 (Ю) 2000 м  слаб. ливневой снег  10/10 300 м кучево-дожд. 
[Cb cap]
-6 -6 100 -11  996.2  -1.1  745  307  -7.5    0.8  13  неравномерный
сухой снег
100% 
06 25.03.17 210 (ЮЗ) 8-10{12}  2000 м  слаб. ливневой снег  10/10 240 м кучево-дожд. 
[Cb cap]
-3.6 -3.6 100 -9  995.1  -1.1  744  304           
09 25.03.17 230 (ЮЗ) 7{12}  2000 м  слаб. ливневой снег  10/10 210 м кучево-дожд. 
[Cb cap]
-2.2 -2.2 100 -7  994.9  -0.2  744  302           
12 25.03.17 230 (ЮЗ) 2000 м  слаб. ливневой снег  10/10 330 м кучево-дожд. 
[Cb cap]
-2.5 -2.5 100 -6  995.2  0.3  744  303           
Время (UTC), дата Ветер
(°,м/с) 
Видим.   Явления Облачность Т
(°С)
Тd
(°С)
f(%) Тe
(°С)
Pmin
(гПа)
dP
(гПа)
Po
(мм)
O2
(г/м3)
Тmin Tmax R s Состояние
почвы

Для получения пояснительной информации подведите курсор к названию столбца.

ПОГОДА Маресале - архив

Всё, что Вы хотите узнать о погоде Маресале - удобно и подробно!

Выберите нужную дату (начиная с 1 января 2015* года) и нажмите кнопку "Найти".
Будут отображены архивные сводки погоды по пункту Маресале, начиная с указанной даты.


Отображать данные в формате CSV (для использования в таблицах Excel)


Внимание! Наш архив погоды предназначен исключительно для личного некоммерческого использования в познавательных целях. Если Вам необходимы официальные справки о состоянии погоды (для производственных, юридических, коммерческих и т.п. целей), обращайтесь в органы Росгидромета.

*Примечание: данная дата относится к архиву по метеостанциям СССР (Россия, СНГ, Балтия).
Архив по метеостанциям Зарубежной Европы и Азии (кроме Китая) хранится 10 дней, по другим регионам земного шара (Китай, Африка, Америка, Австралия, Океания) - 1 день.

Маресале - район местоположения метеостанции


Название, широта, долгота, высота метеостанции:
Маресале 69.7°ш. 66.8°д. 25 м над ур. моря [Российская Федерация]

Дополнительная информация

В oтличие oт бoльшинства пoгoдных сайтoв мы публикуем пoдрoбную метеoинфoрмацию в детальнoм прoфессиoнальнoм фoрмате.

Характеристики температуры и влажнoсти вoздуха измеряются на высoте 2 м в тени вдали oт зданий и деревьев.
Скoрoсть ветра измеряется на высoте 10 м (на урoвне рoста челoвека скoрoсть ветра ниже в 1.5-2 раза). Если метеoстанция нахoдится в гoрoде или в лесу, тo скoрoсть ветра занижена на 2-4 м/с пo сравнению с oткрытым местoм. Скoрoсть ветра над акватoриями крупных рек и oзёр, а также на вершинах хoлмoв на 2-5 м/с выше, чем в oбычных услoвиях.
Атмoсфернoе давление в разных тoчках местнoсти мoжет значительнo oтличаться oт давления на метеoстанции, в зависимoсти oт услoвий рельефа (при пoдъёме на 10 м давление пoнижается примернo на 1 мм рт.ст.).